Location: Arpaise
(41.0333°N, 14.7333°E)
Time: 14:29:26
(UTC+00:00)

Cosmos 846 Rocket - Pass Details

Date: 23 January 2021
Orbit: 948 x 991 km, 82.9° (Epoch: 04 March)

Event Time Altitude Azimuth Distance (km) Brightness Sun altitude
Rises 04:27:03 0° 1° (N) 3,632 8.4 -21.1°
Reaches altitude 10° 04:29:51 10° 11° (NNE) 2,680 7.8 -20.5°
Maximum altitude 04:35:17 32° 74° (ENE) 1,560 7.2 -19.5°
Drops below altitude 10° 04:40:40 10° 137° (SE) 2,667 8.6 -18.5°
Sets 04:43:26 0° 147° (SSE) 3,611 9.2 -18.0°
